Theta_e
351 352 352 343 319 317 313 316 322 322 324 331 332 329 325 331 324 312 342 347 350 352 356 357 363 364 364 363 363 362 363 362 363 364 362 361 361 361 360 359 360 360 360 361 360 360 357 357 357
339 341 345 331 313 305 308 321 319 324 329 333 333 331 327 326 337 339 340 350 351 353 355 357 365 366 364 362 363 364 363 363 363 363 363 362 360 360 360 359 358 358 358 358 359 359 357 355 356
343 348 327 320 314 306 310 322 324 328 333 331 330 334 330 328 339 340 345 351 352 353 355 357 363 364 364 362 363 364 363 362 361 361 360 358 358 356 357 358 359 358 358 358 358 358 356 356 355
340 337 328 313 309 319 321 326 326 327 332 334 333 327 334 341 340 343 350 352 352 353 356 361 363 364 364 363 363 363 362 362 362 360 358 358 357 351 355 354 355 358 357 358 357 357 356 355 356
340 328 314 313 314 321 325 329 330 327 328 332 332 326 328 338 345 348 350 352 351 351 354 358 364 364 363 362 363 363 362 362 361 359 359 355 355 352 352 355 356 356 357 357 358 356 357 358 356
326 322 310 307 315 325 328 331 328 326 331 331 330 328 327 340 344 347 350 350 352 351 355 357 363 363 363 363 363 362 362 361 360 359 355 355 355 354 354 357 356 357 357 357 358 357 358 357 357
324 315 310 313 316 322 328 333 328 327 329 329 334 325 329 336 343 347 348 350 351 353 354 355 357 361 364 363 362 362 362 361 360 357 354 354 348 349 356 357 357 357 357 357 356 357 357 355 355
327 317 310 313 315 317 330 332 334 331 329 336 336 323 323 333 342 344 347 348 350 352 353 350 353 355 355 355 362 362 360 360 359 357 355 354 353 353 356 356 357 356 356 354 355 356 356 355 354
331 312 307 313 317 319 331 327 335 338 332 334 335 332 334 339 343 343 344 345 347 349 351 352 352 353 353 354 358 360 360 359 359 357 357 353 348 351 350 355 358 356 356 355 355 355 356 355 355
321 310 312 322 324 324 330 329 331 331 331 330 331 335 337 339 341 340 340 341 342 344 347 350 349 349 351 355 353 353 353 352 351 350 349 347 345 344 351 353 357 356 356 357 356 355 355 355 355
322 313 321 325 328 330 329 330 332 328 325 329 330 332 336 337 338 340 341 342 342 344 347 349 349 347 349 351 350 349 348 348 347 349 349 349 348 350 350 351 351 352 354 351 352 351 353 353 353
317 325 325 330 332 330 329 330 327 328 327 334 335 336 337 336 336 338 339 340 342 342 345 347 349 348 347 349 348 348 346 346 345 345 347 348 347 348 347 348 348 347 347 349 348 350 351 352 352
318 326 326 329 328 329 331 327 326 327 332 335 336 336 335 335 336 338 340 341 340 340 343 347 347 346 348 348 348 348 346 346 346 345 345 348 346 346 346 344 349 346 348 347 347 348 348 350 351
323 328 323 325 325 329 326 327 327 327 333 334 334 333 334 335 335 335 336 337 337 339 341 344 345 346 348 348 349 347 346 346 346 346 345 346 348 347 345 346 347 347 347 348 350 348 341 346 348
324 318 318 319 323 324 329 321 321 327 332 331 332 332 334 335 336 336 337 337 338 339 341 343 344 345 347 346 348 347 346 347 345 345 345 345 348 345 345 345 345 347 347 347 349 348 341 339 340
315 313 306 315 321 325 324 312 320 327 328 327 329 331 333 334 336 337 338 338 339 339 340 343 347 345 345 345 346 346 348 346 346 346 345 345 347 347 342 347 345 347 348 350 347 343 338 339 342
302 299 305 309 321 322 322 314 323 327 326 324 325 328 331 331 335 337 338 338 339 340 341 342 344 343 343 344 345 345 346 346 345 345 346 343 345 350 345 346 345 348 349 347 347 342 344 344 345
296 295 300 302 310 319 318 318 322 326 324 323 324 325 326 328 331 338 338 339 340 340 342 343 344 344 343 342 343 343 344 344 343 342 346 343 348 349 346 344 342 346 348 349 347 346 345 346 345
299 297 298 303 308 313 315 317 320 324 324 323 321 322 324 325 333 337 337 339 340 341 341 342 341 341 340 341 340 339 339 342 342 343 345 346 347 347 345 345 341 346 346 346 348 347 343 341 343
298 297 298 303 308 312 314 315 320 322 323 324 323 323 324 325 328 332 335 337 339 340 340 340 341 340 340 340 339 341 341 342 344 343 346 346 345 346 345 342 340 345 347 347 347 344 341 337 337
296 296 298 299 305 316 312 308 310 318 324 325 325 326 325 325 326 330 333 335 338 338 339 340 339 339 339 339 340 340 342 341 340 341 343 346 344 346 347 342 341 344 344 346 344 346 343 333 335
294 302 302 301 297 293 311 295 298 306 314 321 324 323 324 325 326 330 333 334 337 339 340 340 339 338 338 339 339 339 337 336 339 341 343 345 346 345 346 344 342 342 341 343 347 348 340 337 333
300 305 302 302 295 293 296 293 296 308 307 313 321 324 324 326 326 328 332 335 338 340 340 339 338 337 337 338 340 338 337 338 338 340 343 344 344 346 348 346 341 344 343 347 347 350 341 339 337
305 300 298 295 293 288 291 293 295 299 305 311 321 324 325 325 326 328 332 336 337 340 340 340 337 335 336 336 338 338 338 336 335 337 339 342 343 346 345 343 342 344 345 348 351 352 343 344 343
298 293 289 288 287 287 290 293 296 303 306 312 318 322 324 327 325 327 329 333 337 338 340 340 338 335 334 336 335 338 339 337 335 336 337 340 342 346 347 343 341 341 344 349 352 351 350 348 347
296 294 289 284 285 288 290 289 296 305 312 316 319 323 325 325 327 327 330 333 336 339 340 340 338 337 335 335 335 336 339 336 335 339 339 338 340 346 349 347 347 343 343 346 350 352 351 351 350
296 291 294 288 284 286 289 294 301 307 311 317 318 321 323 325 327 327 330 332 336 338 340 340 338 337 336 334 335 335 338 336 335 340 342 343 342 345 348 348 347 349 348 348 350 349 350 351 350
299 298 290 287 284 282 287 291 293 300 305 310 314 317 322 326 327 328 330 333 335 339 340 341 339 337 337 336 336 337 338 339 339 342 340 342 344 345 349 350 347 347 350 350 349 348 350 349 348
294 291 289 289 287 284 284 289 297 303 306 305 310 316 320 322 325 327 329 332 335 339 339 339 339 337 337 338 338 339 340 342 344 343 341 341 344 346 347 348 350 349 349 350 349 350 350 348 349
296 293 290 288 286 285 286 289 301 305 309 310 313 317 319 322 324 327 329 332 334 338 339 339 338 338 338 341 341 340 341 342 342 343 344 342 342 345 347 347 347 347 347 348 349 347 349 347 347
Wind_Speed
1 2 1 1 5 5 2 1 1 4 3 3 3 1 4 3 2 3 2 4 11 11 7 9 10 11 11 10 10 12 12 12 13 13 14 13 12 13 13 11 10 10 9 9 10 8 5 4 5
1 3 1 2 6 4 3 1 3 3 2 5 6 3 4 1 2 5 7 6 11 11 7 5 8 10 11 10 10 11 12 12 12 12 13 13 12 10 10 9 9 8 8 8 8 7 5 1 3
2 0 4 5 3 2 0 2 3 4 3 2 2 4 2 2 2 7 5 11 10 8 6 6 10 11 11 9 10 11 11 11 11 11 11 10 10 8 4 8 9 8 8 7 6 5 4 4 3
3 4 4 6 2 2 2 2 4 4 4 5 3 5 3 3 7 5 11 12 10 7 6 10 13 12 11 9 10 8 10 10 10 10 10 9 9 12 7 7 6 6 7 7 6 5 5 4 4
3 3 5 3 1 2 3 3 3 2 5 5 2 3 3 2 6 11 11 11 10 7 6 8 12 12 11 9 9 10 9 9 9 8 9 7 9 3 6 6 6 6 6 6 6 5 5 5 4
4 3 5 1 3 2 3 5 3 3 3 4 4 4 3 3 9 9 10 8 8 9 6 6 12 12 11 10 10 8 9 8 8 8 11 10 8 7 7 7 6 6 5 5 5 5 5 4 3
5 4 1 1 3 3 3 6 4 3 5 3 8 4 1 3 6 10 8 7 7 6 5 5 5 9 12 11 9 9 8 7 7 9 10 14 8 5 4 6 6 6 4 4 5 5 3 3 1
4 4 1 3 2 3 1 4 2 3 3 6 6 5 4 5 8 7 7 6 5 5 5 5 5 5 5 4 9 8 6 6 7 9 11 13 13 8 5 3 5 5 6 5 5 5 3 2 1
2 4 2 3 3 3 1 3 2 4 7 2 1 4 5 16 11 8 7 4 3 4 5 5 5 5 5 4 3 8 8 7 7 8 11 8 3 3 3 3 4 4 5 5 5 4 4 3 2
3 3 5 3 2 2 2 3 5 3 2 2 3 7 14 16 14 12 10 9 6 6 5 5 5 5 4 3 2 4 3 4 4 4 4 4 4 3 2 1 6 5 6 5 4 3 4 2 0
3 3 1 3 3 4 3 3 2 7 3 6 7 12 14 15 12 11 11 12 14 10 6 7 6 5 6 4 3 2 2 3 3 5 3 3 2 1 1 1 1 2 2 2 2 2 1 1 1
4 2 2 3 3 2 3 4 3 4 5 4 11 16 14 14 13 13 10 8 8 8 9 7 7 7 6 4 3 3 3 3 3 3 4 3 1 2 1 1 2 2 1 0 1 1 1 3 3
1 2 2 2 5 3 4 2 3 7 5 5 12 13 13 12 11 8 9 7 6 7 9 7 7 7 6 5 4 4 3 3 4 4 4 3 3 2 2 2 2 2 1 3 3 2 2 2 3
3 3 2 2 2 2 3 1 1 4 7 10 13 12 11 12 11 6 7 7 8 6 7 6 7 6 8 7 7 5 4 4 3 3 4 5 3 2 2 2 2 3 2 3 1 1 2 1 2
1 4 6 3 2 3 2 6 10 3 7 10 12 10 9 9 9 12 11 9 9 6 7 8 7 6 7 7 7 5 6 4 4 4 5 4 3 3 3 3 3 3 3 3 2 3 2 1 0
3 4 5 3 3 2 5 10 5 9 10 9 9 9 11 12 13 11 8 8 8 7 9 7 7 7 7 7 4 4 5 5 4 4 3 5 4 4 4 3 2 3 3 3 4 3 2 1 1
7 3 3 7 7 3 5 8 2 9 11 10 10 10 11 9 9 12 11 9 9 9 8 7 7 7 7 5 4 4 5 5 4 3 3 5 5 4 4 3 2 3 3 3 4 2 2 1 1
4 5 5 8 3 4 5 19 7 7 9 14 12 10 10 10 15 14 12 11 10 8 8 8 5 6 6 4 3 3 3 2 3 4 3 5 3 4 3 3 3 3 2 3 3 3 1 2 1
3 4 6 18 8 6 11 15 17 7 8 8 10 11 11 13 9 10 9 10 11 9 9 9 7 5 6 3 3 3 3 2 3 3 4 5 4 4 4 3 3 3 3 3 4 3 3 2 0
3 5 9 13 7 8 3 13 11 8 9 13 13 11 12 7 8 8 10 10 12 12 10 8 7 7 5 4 3 3 3 2 2 2 3 4 4 4 4 4 2 1 1 3 4 4 3 2 0
4 5 5 7 7 1 3 7 7 2 3 7 10 8 8 13 13 11 12 12 11 12 12 10 8 8 6 6 4 2 3 3 2 2 2 3 4 5 3 3 2 2 0 2 2 3 4 3 1
6 6 5 7 1 4 4 8 6 4 8 7 8 9 11 11 9 11 13 13 14 13 11 10 9 8 6 7 6 5 4 3 3 3 2 3 5 5 4 4 4 1 1 1 2 3 2 3 3
10 4 5 4 3 2 2 2 10 4 8 8 12 12 12 13 14 13 15 15 12 12 11 10 9 7 6 8 7 6 4 3 2 2 3 3 3 4 5 4 4 2 2 1 2 4 3 1 3
4 4 3 4 3 3 4 3 11 3 7 5 4 12 14 13 13 13 11 11 13 11 12 10 10 9 7 8 6 8 8 5 4 3 3 3 2 3 4 4 3 2 2 2 0 1 4 2 2
5 6 5 6 6 7 3 1 11 11 9 8 8 10 14 13 12 12 12 13 14 15 14 11 12 10 9 10 8 7 8 6 7 6 4 4 2 3 5 5 4 4 4 3 1 2 3 3 2
5 8 7 5 4 7 2 5 8 6 9 6 7 6 9 13 14 15 16 15 15 16 16 13 13 10 11 11 11 7 7 5 5 4 4 4 4 3 3 5 5 5 5 3 3 2 2 2 2
3 4 5 6 3 1 3 9 12 3 8 2 3 6 12 14 15 16 16 18 17 18 19 18 15 12 12 12 10 8 7 6 6 5 4 3 4 3 4 5 5 5 4 4 4 3 3 2 2
6 7 2 3 2 3 5 6 7 10 11 2 5 8 9 9 11 12 13 16 15 18 16 12 13 15 14 12 10 9 9 7 6 5 5 5 5 5 4 4 5 5 5 5 5 4 4 3 2
2 1 6 5 5 6 2 8 8 7 11 12 9 7 9 7 11 12 13 13 14 14 16 14 14 13 13 12 10 10 10 8 6 6 5 5 4 5 5 4 4 5 6 6 5 5 4 5 4
2 3 5 6 4 1 4 9 4 7 10 8 10 3 7 7 8 9 9 12 15 17 16 17 15 14 13 13 11 11 9 8 8 7 6 5 6 4 5 3 4 4 6 5 5 6 5 6 6
Wind_Direction
186 239 183 43 53 62 91 138 177 306 350 257 94 229 143 69 167 204 84 133 130 133 144 151 152 146 140 127 129 118 118 123 125 129 126 140 141 139 143 144 147 147 148 161 159 156 153 111 92
236 172 56 79 70 52 299 338 242 239 262 342 102 97 50 99 81 113 117 137 135 134 136 146 154 144 134 129 127 126 128 127 127 122 128 136 143 142 150 158 170 159 167 176 180 182 179 149 98
267 88 70 77 75 119 177 211 275 317 285 247 87 66 113 180 87 158 128 134 128 132 135 158 147 142 142 141 132 134 132 134 127 127 121 121 125 105 163 187 189 179 180 187 179 178 158 168 144
355 14 32 76 101 255 242 265 214 318 323 179 114 81 75 199 149 155 132 130 126 130 141 158 151 148 146 149 139 131 134 145 137 136 130 131 146 163 186 197 192 186 194 185 190 167 170 155 144
43 58 54 59 310 247 249 254 175 270 324 122 114 108 65 47 105 132 133 136 133 136 148 154 155 153 150 158 155 155 155 144 141 139 125 101 112 86 197 191 195 180 193 182 178 156 141 128 149
42 88 56 76 291 245 244 209 178 213 83 141 112 101 163 142 136 148 140 135 140 149 148 154 161 160 160 161 159 153 149 149 143 138 126 112 112 147 179 165 165 184 185 187 165 158 155 161 184
104 77 188 195 262 304 221 154 191 183 147 188 125 114 87 154 156 143 129 117 129 142 135 140 152 170 164 163 165 164 159 150 147 135 132 118 140 224 174 151 161 188 197 198 194 177 159 177 208
104 92 93 247 220 261 146 147 342 81 166 104 145 182 202 177 146 117 105 109 122 124 138 149 141 135 147 164 181 160 170 151 157 137 143 153 168 192 168 158 198 206 202 208 217 197 185 239 253
102 68 257 232 182 266 161 130 36 39 127 77 5 148 156 132 129 110 104 98 140 165 167 157 160 159 161 163 190 163 163 150 134 139 150 130 114 106 102 182 231 203 221 217 230 227 226 226 289
108 108 233 218 205 233 176 153 151 121 127 64 68 69 124 139 148 151 160 172 183 184 186 178 162 154 159 158 144 158 149 99 107 132 130 130 146 157 168 200 226 199 224 217 220 229 230 230 99
165 208 274 291 251 251 186 123 147 142 190 203 175 150 144 152 164 170 183 183 185 184 186 182 172 166 163 155 148 158 122 113 130 140 143 148 144 70 64 21 41 86 80 97 88 39 36 93 156
323 303 168 298 335 120 178 140 180 203 214 164 166 159 151 167 174 185 188 184 173 176 190 185 167 161 177 149 169 160 145 137 163 152 157 158 167 140 127 146 140 114 25 290 184 173 238 213 178
227 260 338 329 328 301 130 197 221 231 216 151 140 158 169 175 180 190 188 190 168 188 181 184 169 166 177 175 169 160 164 167 169 164 179 179 186 145 205 144 157 144 116 238 215 132 215 225 165
332 296 277 267 306 275 213 201 275 263 154 151 157 174 175 179 180 160 175 187 181 173 185 170 184 171 176 179 183 175 154 169 161 179 190 186 172 179 202 172 143 160 190 237 221 185 123 115 135
351 313 332 253 217 245 149 281 236 172 158 155 170 175 186 190 175 193 188 187 179 184 170 179 184 168 180 185 187 170 156 165 169 193 207 159 163 192 168 187 147 193 201 231 194 139 84 79 157
348 45 354 280 147 238 127 274 298 166 157 178 176 182 193 201 202 203 197 187 176 163 176 170 183 177 172 174 169 164 153 164 187 199 204 162 182 197 182 197 207 202 176 170 153 117 101 105 157
8 302 292 313 209 124 178 270 272 174 175 187 192 196 200 206 213 200 195 181 178 171 159 169 170 177 166 162 158 158 156 176 180 200 191 177 208 195 199 211 215 187 161 147 137 132 133 133 135
318 325 297 262 287 223 207 260 235 187 187 192 197 199 206 206 218 207 183 168 164 159 159 157 164 163 144 136 137 125 152 193 167 195 196 185 207 193 202 215 199 177 138 122 128 131 127 103 134
236 241 260 289 253 240 222 251 264 185 223 213 199 196 204 217 217 194 172 162 151 152 154 161 160 163 142 144 159 145 169 165 192 195 194 192 195 198 209 226 209 169 134 140 148 118 113 78 176
221 279 283 282 289 180 148 250 270 202 214 210 204 195 203 174 179 171 160 162 168 162 163 159 170 163 161 153 139 148 149 167 174 171 198 193 192 203 217 275 299 123 143 127 159 162 142 120 351
246 211 273 242 338 280 4 286 261 281 229 211 221 185 183 180 180 178 174 171 166 165 164 170 168 166 164 156 131 104 98 84 93 173 189 202 180 198 209 222 218 201 36 204 199 157 136 141 120
299 182 250 275 138 246 136 286 279 297 281 227 212 185 182 176 184 184 174 177 173 175 161 162 158 165 171 166 167 158 159 147 183 185 179 199 189 192 209 213 196 195 239 200 133 145 137 126 140
237 329 299 308 193 1 307 61 271 343 293 255 218 197 190 186 180 187 183 184 177 162 166 157 155 169 171 175 185 162 152 156 143 148 184 222 199 190 206 214 219 196 231 269 173 153 140 184 135
261 309 38 51 82 12 266 137 287 250 237 286 232 201 187 189 186 194 181 162 172 158 148 163 166 182 175 174 190 171 172 173 154 165 197 210 194 182 193 204 189 223 219 252 197 139 163 180 127
96 57 335 349 4 226 275 73 239 275 270 246 227 196 193 187 179 183 167 168 170 164 168 178 168 185 184 183 186 187 173 182 193 181 195 195 188 199 190 182 198 215 218 240 279 182 187 194 175
189 154 163 234 230 263 295 254 264 228 288 311 223 179 181 190 185 187 179 174 174 169 175 176 167 183 187 189 195 190 180 184 203 193 186 213 200 203 177 198 205 214 217 225 224 245 211 188 203
239 208 189 111 4 43 266 297 302 295 312 93 263 163 191 195 194 195 181 177 171 174 185 182 174 176 192 192 186 189 191 188 200 202 195 212 210 208 218 206 213 218 207 208 195 222 235 192 211
173 164 59 13 194 231 294 283 241 309 313 326 235 219 224 191 196 191 186 181 179 179 185 178 177 183 188 185 186 187 195 196 195 174 207 216 217 201 209 220 222 216 208 187 201 201 218 209 222
66 301 51 120 136 167 205 266 217 258 285 297 274 203 233 197 190 188 189 178 173 176 177 180 179 180 185 187 183 181 190 195 186 185 201 215 207 201 215 220 226 215 210 203 190 203 200 207 225
171 127 131 127 230 225 160 269 244 277 287 289 287 199 209 180 190 192 178 167 171 176 177 181 182 186 190 185 185 183 187 185 192 197 197 208 217 205 211 220 238 242 204 180 211 214 205 206 214